#timestamp,LO_Frequency,Hit,StdDev 
1501506015.2,286047002.2,N,1.0
1501506035.1,286047002.0,N,1.0
1501506036.0,286047002.0,N,0.9
1501506055.8,286047004.1,P,1.2
1501506075.7,286047000.1,N,1.6
1501506095.5,286046999.9,N,1.7
1501506115.3,286047002.5,N,1.6
1501506135.2,286047001.9,N,1.4
1501506155.0,286047002.3,N,1.3
1501506155.9,286047002.3,N,1.3
1501506175.8,286047002.1,N,1.2
1501506195.6,286047001.6,N,1.1
1501506215.4,286047002.7,N,1.1
1501506235.3,286047002.4,N,1.1
1501506255.1,286047000.3,N,1.1
1501506275.8,286046999.9,N,1.2
1501506295.7,286047002.2,N,1.2
1501506315.5,286046999.9,N,1.2
1501506335.4,286047002.8,N,1.2
1501506355.2,286047001.7,N,1.2
1501506375.0,286047001.7,N,1.1
1501506375.9,286047001.7,N,1.1
1501506395.8,286047001.3,N,1.1
1501506415.6,286047001.8,N,1.1
1501506435.5,286047004.0,P,1.2
1501506455.3,286047002.6,N,1.0
1501506475.1,286046999.8,N,1.5
1501506495.9,286046999.7,N,1.6
1501506515.7,286047000.3,N,1.6
1501506535.6,286047000.2,N,1.5
1501506555.4,286047000.4,N,1.4
1501506575.2,286047000.6,N,1.4
1501506595.1,286047000.4,N,1.3
1501506596.0,286047000.4,N,1.3
1501506615.8,286047000.1,N,1.2
1501506635.7,286047000.0,N,1.2
1501506655.5,286047001.9,N,1.2
1501506675.3,286047002.0,N,1.2
1501506695.2,286047002.0,N,1.2
1501506715.0,286047001.8,N,1.2
1501506715.9,286047001.8,N,1.1
1501506735.8,286047001.9,N,1.1
1501506755.6,286047001.7,N,1.1
1501506775.4,286047001.7,N,1.1
1501506795.3,286047002.1,N,1.1
1501506815.1,286047002.5,N,1.1
1501506835.9,286047002.5,N,1.1
1501506855.7,286047002.4,N,1.1
1501506875.5,286047002.1,N,1.1
1501506895.4,286047002.6,N,1.1
1501506915.2,286047001.5,N,1.1
1501506935.1,286047002.1,P,0.3
1501506936.0,286047002.1,P,0.3
1501506955.8,286046999.7,N,1.0
1501506975.6,286047000.3,N,1.0
1501506995.5,286047000.2,N,1.0
1501507015.3,286046999.9,N,1.0
1501507035.2,286047000.7,N,0.9
1501507055.9,286047000.5,N,0.9
1501507075.7,286047002.7,P,1.0
1501507095.6,286047000.7,N,0.9
1501507115.4,286047002.8,N,1.0
1501507135.3,286047000.3,N,1.1
1501507155.1,286047000.2,N,1.1
1501507156.0,286047000.2,N,1.1
1501507175.8,286047000.0,N,1.1
1501507195.7,286046999.9,N,1.1
1501507215.5,286047000.9,N,1.0
1501507235.3,286047000.6,N,1.0
1501507255.2,286047000.5,N,0.9
1501507275.0,286047000.8,P,0.0
1501507275.9,286047000.8,P,0.0
1501507295.8,286046998.2,P,1.1
1501507315.6,286046998.4,N,1.2
1501507335.5,286047000.8,N,1.2
1501507355.3,286046998.3,N,1.2
1501507375.1,286046998.9,N,1.2
1501507395.9,286046999.0,N,1.1
1501507415.7,286046999.2,N,1.1
1501507435.5,286046999.4,N,1.0
1501507455.4,286046996.7,P,1.4
1501507475.2,286046998.7,N,1.2
1501507495.1,286047000.7,N,1.5
1501507496.0,286047000.7,N,1.5
1501507515.8,286047001.0,P,0.9
1501507535.7,286047000.0,N,0.7
1501507555.5,286046999.9,N,0.6
1501507575.3,286046998.2,N,0.9
1501507595.2,286047001.1,N,1.0
1501507615.0,286047001.2,N,1.0
1501507615.9,286047001.2,N,1.0
1501507635.8,286047000.5,N,1.0
1501507655.6,286047000.5,N,0.9
1501507675.4,286047001.0,N,0.9
1501507695.3,286047000.0,N,0.9
1501507715.1,286047000.7,N,0.8
1501507735.9,286047000.8,N,0.8
1501507755.7,286046998.4,N,0.9
1501507775.5,286046998.6,N,1.0
1501507795.4,286046998.3,N,1.1
1501507815.2,286046998.2,N,1.1
1501507835.1,286047001.2,N,1.1
1501507836.0,286047001.2,N,1.1
1501507855.8,286047000.3,N,1.1
1501507875.6,286047000.7,N,1.1
1501507895.5,286047000.3,N,1.1
1501507915.3,286047000.0,N,1.0
1501507935.2,286047002.7,N,1.1
1501507955.9,286046999.7,N,1.1
1501507975.7,286047001.9,N,1.1
1501507995.6,286047002.4,N,1.2
1501508015.4,286046999.8,N,1.2
1501508035.2,286047000.1,N,1.2
1501508055.1,286046999.7,N,1.1
1501508056.0,286046999.7,N,1.1
1501508075.8,286047002.3,N,1.2
1501508095.7,286047001.9,N,1.2
1501508115.5,286047000.5,N,1.1
1501508135.3,286047000.2,N,1.1
1501508155.2,286046999.9,N,1.1
1501508175.0,286047000.0,N,1.1
1501508175.9,286047000.0,N,1.1
1501508195.8,286047000.6,N,1.1
1501508215.6,286047000.6,N,1.1
1501508235.4,286046999.7,N,1.1
1501508255.3,286047000.0,N,1.1
1501508275.1,286047000.5,N,1.1
1501508295.9,286047002.4,N,1.1
1501508315.7,286047002.5,N,1.1
1501508335.5,286046999.9,N,1.1
1501508355.4,286047002.6,N,1.0
1501508375.2,286047002.1,N,1.0
1501508395.0,286047002.3,N,1.1
1501508396.0,286047002.3,N,1.1
1501508415.8,286046999.8,N,1.1
1501508435.6,286046999.7,N,1.1
1501508455.5,286047000.5,N,1.1
1501508475.3,286047002.2,N,1.1
1501508495.2,286047002.8,N,1.1
1501508515.9,286047001.6,N,1.1
1501508535.7,286047002.6,N,1.1
1501508555.6,286047001.5,N,1.1
1501508575.4,286047001.3,N,1.1
1501508595.3,286047004.3,P,1.6
1501508615.1,286047002.3,N,1.3
1501508616.0,286047002.3,N,1.2
1501508635.8,286047000.2,N,1.4
1501508655.7,286046998.3,N,1.9
1501508675.5,286047000.8,N,1.8
1501508695.4,286046998.1,N,2.0
1501508715.2,286047000.0,N,1.9
1501508735.0,286047000.2,N,1.8
1501508735.9,286047000.2,N,1.7
1501508755.8,286047000.1,N,1.6
1501508775.6,286047002.4,N,1.6
1501508795.4,286046999.9,N,1.6
1501508815.3,286047000.1,N,1.6
1501508835.1,286047000.4,N,1.5
1501508855.9,286047000.3,N,1.5
1501508875.7,286046998.5,N,1.5
1501508895.5,286046998.1,N,1.6
1501508915.4,286046998.3,N,1.6
1501508935.2,286046998.5,N,1.6
1501508955.1,286046998.3,N,1.6
1501508956.0,286046998.3,N,1.6
1501508975.8,286046999.6,N,1.6
1501508995.6,286046999.4,N,1.6
1501509015.5,286046998.9,N,1.5
1501509035.3,286046999.3,N,1.5
1501509055.2,286046998.9,N,1.5
1501509075.9,286046997.0,N,1.6
1501509095.7,286046999.0,N,1.6
1501509115.6,286046996.5,N,1.6
1501509135.4,286046996.6,P,1.5
1501509155.3,286046998.8,N,1.3
1501509175.1,286046999.2,N,1.2
1501509195.9,286046996.5,P,1.0
1501509215.7,286046998.8,N,1.0
1501509235.5,286046999.4,N,1.1
1501509255.4,286046999.4,N,1.1
1501509275.2,286046999.2,N,1.0
1501509295.0,286046998.2,N,0.9
1501509295.9,286046998.2,N,0.9
1501509315.8,286046999.0,N,0.9
1501509335.6,286046996.9,P,0.8
1501509355.5,286047001.2,N,1.8
1501509375.3,286047000.9,N,1.8
1501509395.1,286046998.5,N,1.6
1501509415.9,286047001.1,N,1.6
1501509435.7,286047000.7,N,1.6
1501509455.6,286046998.6,N,1.5
1501509475.4,286047001.2,N,1.5
1501509495.2,286047000.8,N,1.5
1501509515.1,286046998.5,N,1.5
1501509516.0,286046998.5,N,1.4
1501509535.8,286046998.6,N,1.4
1501509555.7,286046998.7,N,1.4
1501509575.5,286046998.9,N,1.3
1501509595.3,286046999.4,N,1.3
